This is the latest recevied weather packets stored in our database for station/object K7SKM. If no packets are shown the sender has not sent any weather packets the latest 10 day(s).
| Time | Temp. | Humidity | Pressure | Rain* | Wind** | Luminosity | Snow |
|---|---|---|---|---|---|---|---|
| 1787624185 | 26.11° C | 51% | 1017.5 hPa | 0 mm | - | 29 W/m² | - |
| 1787623880 | 26.11° C | 50% | 1017.5 hPa | 0 mm | - | 32 W/m² | - |
| 1787623580 | 26.11° C | 49% | 1017.5 hPa | 0 mm | - | 36 W/m² | - |
| 1787623274 | 26.67° C | 49% | 1017.6 hPa | 0 mm | - | 41 W/m² | - |
| 1787622968 | 26.67° C | 48% | 1017.6 hPa | 0 mm | - | 44 W/m² | - |
| 1787622665 | 27.22° C | 48% | 1017.5 hPa | 0 mm | - | 46 W/m² | - |
| 1787622361 | 27.22° C | 48% | 1017.6 hPa | 0 mm | - | 49 W/m² | - |
| 1787622056 | 27.22° C | 47% | 1017.6 hPa | 0 mm | - | 50 W/m² | - |
| 1787621755 | 27.78° C | 47% | 1017.6 hPa | 0 mm | - | 52 W/m² | - |
| 1787621450 | 27.78° C | 47% | 1017.7 hPa | 0 mm | - | 56 W/m² | - |
| 1787621147 | 27.78° C | 47% | 1017.6 hPa | 0 mm | - | 83 W/m² | - |
| 1787620843 | 28.33° C | 45% | 1017.5 hPa | 0 mm | - | 95 W/m² | - |
| 1787620537 | 28.33° C | 45% | 1017.6 hPa | 0 mm | - | 197 W/m² | - |
| 1787620233 | 28.89° C | 44% | 1017.5 hPa | 0 mm | - | 207 W/m² | - |
| 1787619928 | 30° C | 42% | 1017.6 hPa | 0 mm | - | 220 W/m² | - |
| 1787619623 | 29.44° C | 43% | 1017.5 hPa | 0 mm | - | 228 W/m² | - |
| 1787619319 | 29.44° C | 43% | 1017.5 hPa | 0 mm | - | 239 W/m² | - |
| 1787619018 | 29.44° C | 43% | 1017.5 hPa | 0 mm | - | 246 W/m² | - |
| 1787618713 | 29.44° C | 43% | 1017.5 hPa | 0 mm | - | 248 W/m² | - |
| 1787618410 | 29.44° C | 42% | 1017.6 hPa | 0 mm | - | 259 W/m² | - |
| 1787618107 | 28.33° C | 44% | 1017.6 hPa | 0 mm | - | 265 W/m² | - |
| 1787617806 | 28.33° C | 44% | 1017.4 hPa | 0 mm | - | 265 W/m² | - |
| 1787617500 | 28.33° C | 43% | 1017.7 hPa | 0 mm | - | 272 W/m² | - |
| 1787617190 | 28.89° C | 42% | 1017.5 hPa | 0 mm | - | 280 W/m² | - |
| 1787616889 | 28.33° C | 42% | 1017.6 hPa | 0 mm | - | 282 W/m² | - |
* Rain latest hour (hover to see other rain measurements)
** Current wind speed in m/s (hover to see current wind gust speed)